Location: Krakow
(50.0212°N, 19.9423°E)
Time: 00:24:33
(UTC+02:00)

NOAA 18 - Pass Details

Date: 14 August 2024
Orbit: 837 x 859 km, 98.9° (Epoch: 19 September)

Event Time Altitude Azimuth Distance (km) Brightness Sun altitude
Exits shadow 23:47:41 23° 237° (WSW) 1,729 6.6 -24.8°
Maximum altitude 23:49:26 28° 267° (W) 1,572 6.7 -24.8°
Drops below altitude 10° 23:54:09 10° 325° (NW) 2,505 8.6 -25.0°
Sets 23:56:54 0° 337° (NNW) 3,447 9.7 -25.1°
